| time (UTC) | temp F | wind direction | speed MPH | gust MPH | rain 1hr in | rain 24hr in | rain mn in | humidity % | barometer mb |
| 20260906234600 | 83 | 360 | 0.0 | 1.0 | 0.00 | 0.01 | 0.01 | 64 | 1008.0 |
| 20260906233052 | 84 | 360 | 0.0 | 1.0 | 0.00 | 0.01 | 0.01 | 62 | 1007.7 |
| 20260906231549 | 84 | 360 | 1.0 | 8.0 | 0.00 | 0.01 | 0.01 | 60 | 1007.5 |
| 20260906230043 | 85 | 360 | 2.0 | 10.0 | 0.00 | 0.01 | 0.01 | 59 | 1007.6 |
| 20260906224542 | 86 | 360 | 0.0 | 6.0 | 0.00 | 0.01 | 0.01 | 54 | 1007.6 |
| 20260906223034 | 87 | 360 | 0.0 | 10.0 | 0.00 | 0.01 | 0.01 | 52 | 1007.4 |
| 20260906221533 | 87 | 360 | 1.0 | 8.0 | 0.00 | 0.01 | 0.01 | 50 | 1007.2 |
| 20260906220017 | 87 | 360 | 0.0 | 9.0 | 0.00 | 0.01 | 0.01 | 52 | 1007.1 |
| 20260906214511 | 89 | 360 | 0.0 | 8.0 | 0.00 | 0.01 | 0.01 | 47 | 1007.2 |
| 20260906213004 | 90 | 360 | 0.0 | 8.0 | 0.00 | 0.01 | 0.01 | 48 | 1007.2 |
| 20260906211601 | 89 | 360 | 1.0 | 8.0 | 0.00 | 0.01 | 0.01 | 49 | 1007.1 |
| 20260906210058 | 88 | 360 | 0.0 | 8.0 | 0.00 | 0.01 | 0.01 | 52 | 1007.0 |
| 20260906204559 | 89 | 360 | 1.0 | 8.0 | 0.00 | 0.01 | 0.01 | 51 | 1007.1 |
| 20260906203056 | 90 | 360 | 1.0 | 9.0 | 0.00 | 0.01 | 0.01 | 51 | 1007.2 |
| 20260906201637 | 89 | 360 | 0.0 | 4.0 | 0.00 | 0.01 | 0.01 | 52 | 1007.3 |
| 20260906200029 | 90 | 360 | 0.0 | 9.0 | 0.00 | 0.01 | 0.01 | 52 | 1007.5 |
| 20260906194522 | 89 | 360 | 1.0 | 5.0 | 0.00 | 0.01 | 0.01 | 49 | 1007.6 |
| 20260906193015 | 87 | 360 | 0.0 | 6.0 | 0.00 | 0.01 | 0.01 | 57 | 1007.8 |
| 20260906191506 | 89 | 360 | 0.0 | 2.0 | 0.00 | 0.01 | 0.01 | 50 | 1008.0 |
| 20260906190056 | 88 | 360 | 0.0 | 8.0 | 0.00 | 0.01 | 0.01 | 55 | 1008.3 |
| 20260906184549 | 87 | 360 | 0.0 | 5.0 | 0.00 | 0.01 | 0.01 | 58 | 1008.5 |
| 20260906183049 | 87 | 360 | 0.0 | 1.0 | 0.00 | 0.01 | 0.01 | 57 | 1008.6 |
| 20260906181553 | 87 | 360 | 0.0 | 0.0 | 0.00 | 0.01 | 0.01 | 58 | 1008.8 |
| 20260906180101 | 87 | 360 | 0.0 | 3.0 | 0.00 | 0.01 | 0.01 | 59 | 1008.9 |
| 20260906174535 | 88 | 360 | 0.0 | 2.0 | 0.00 | 0.01 | 0.01 | 57 | 1009.1 |
| 20260906173029 | 86 | 360 | 0.0 | 4.0 | 0.00 | 0.01 | 0.01 | 60 | 1009.3 |
| 20260906171518 | 87 | 360 | 0.0 | 7.0 | 0.00 | 0.01 | 0.01 | 59 | 1009.4 |
| 20260906170018 | 87 | 360 | 0.0 | 7.0 | 0.00 | 0.01 | 0.01 | 58 | 1009.4 |
| 20260906164503 | 86 | 360 | 0.0 | 4.0 | 0.00 | 0.01 | 0.01 | 60 | 1009.6 |
| 20260906163110 | 86 | 360 | 0.0 | 5.0 | 0.00 | 0.01 | 0.01 | 59 | 1009.6 |
| 20260906161548 | 85 | 360 | 0.0 | 9.0 | 0.00 | 0.01 | 0.01 | 61 | 1009.7 |
| 20260906160053 | 84 | 360 | 0.0 | 5.0 | 0.00 | 0.01 | 0.01 | 63 | 1009.8 |
| 20260906154541 | 84 | 360 | 0.0 | 4.0 | 0.00 | 0.01 | 0.01 | 62 | 1009.8 |
| 20260906153040 | 84 | 75 | 0.0 | 2.0 | 0.00 | 0.01 | 0.01 | 63 | 1009.7 |
| 20260906151524 | 83 | 360 | 0.0 | 8.0 | 0.00 | 0.01 | 0.01 | 64 | 1009.9 |
| 20260906150019 | 83 | 12 | 0.0 | 4.0 | 0.00 | 0.01 | 0.01 | 64 | 1010.0 |
| 20260906144512 | 82 | 12 | 0.0 | 4.0 | 0.00 | 0.01 | 0.01 | 65 | 1010.0 |
| 20260906143058 | 81 | 355 | 0.0 | 1.0 | 0.00 | 0.01 | 0.01 | 67 | 1010.0 |
| 20260906141550 | 80 | 360 | 0.0 | 0.0 | 0.00 | 0.01 | 0.01 | 69 | 1010.1 |
| 20260906140045 | 79 | 360 | 0.0 | 1.0 | 0.00 | 0.01 | 0.01 | 70 | 1010.1 |
| 20260906134532 | 78 | 360 | 0.0 | 0.0 | 0.00 | 0.01 | 0.01 | 73 | 1010.1 |
| 20260906133019 | 76 | 360 | 0.0 | 1.0 | 0.00 | 0.01 | 0.01 | 76 | 1010.0 |
| 20260906131508 | 74 | 360 | 0.0 | 0.0 | 0.00 | 0.01 | 0.01 | 81 | 1010.1 |
| 20260906130000 | 73 | 360 | 0.0 | 0.0 | 0.00 | 0.01 | 0.01 | 90 | 1010.1 |
| 20260906124555 | 72 | 360 | 0.0 | 0.0 | 0.00 | 0.01 | 0.01 | 94 | 1010.2 |
| 20260906123048 | 71 | 360 | 0.0 | 0.0 | 0.00 | 0.01 | 0.01 | 94 | 1010.0 |
| 20260906121641 | 70 | 360 | 0.0 | 0.0 | 0.00 | 0.01 | 0.01 | 94 | 1009.8 |
| 20260906120036 | 70 | 360 | 0.0 | 0.0 | 0.00 | 0.01 | 0.01 | 94 | 1009.7 |
| 20260906114541 | 70 | 360 | 0.0 | 0.0 | 0.00 | 0.01 | 0.01 | 95 | 1009.6 |
| 20260906113024 | 69 | 360 | 0.0 | 0.0 | 0.00 | 0.01 | 0.01 | 94 | 1009.2 |
| 20260906111625 | 70 | 360 | 0.0 | 0.0 | 0.00 | 0.01 | 0.01 | 94 | 1009.3 |
| 20260906110006 | 70 | 360 | 0.0 | 0.0 | 0.00 | 0.01 | 0.01 | 94 | 1009.0 |
| 20260906104700 | 70 | 360 | 0.0 | 0.0 | 0.00 | 0.01 | 0.01 | 94 | 1008.8 |
| 20260906103057 | 70 | 360 | 0.0 | 0.0 | 0.00 | 0.01 | 0.01 | 94 | 1008.8 |
| 20260906101549 | 70 | 360 | 0.0 | 0.0 | 0.00 | 0.01 | 0.01 | 94 | 1008.8 |
| 20260906100053 | 70 | 360 | 0.0 | 0.0 | 0.00 | 0.01 | 0.01 | 94 | 1008.7 |
| 20260906094643 | 70 | 360 | 0.0 | 0.0 | 0.00 | 0.01 | 0.01 | 94 | 1008.9 |
| 20260906093035 | 71 | 360 | 0.0 | 0.0 | 0.00 | 0.01 | 0.01 | 94 | 1008.9 |
| 20260906091527 | 71 | 360 | 0.0 | 1.0 | 0.00 | 0.01 | 0.01 | 94 | 1008.9 |
| 20260906090020 | 71 | 360 | 0.0 | 1.0 | 0.00 | 0.01 | 0.01 | 93 | 1009.0 |
| 20260906084515 | 72 | 284 | 0.0 | 0.0 | 0.00 | 0.01 | 0.01 | 93 | 1008.9 |
| 20260906083007 | 72 | 215 | 0.0 | 0.0 | 0.00 | 0.01 | 0.01 | 93 | 1008.9 |
| 20260906081559 | 72 | 360 | 0.0 | 1.0 | 0.00 | 0.01 | 0.01 | 92 | 1008.9 |
| 20260906080057 | 72 | 360 | 0.0 | 0.0 | 0.00 | 0.01 | 0.01 | 92 | 1008.9 |
| 20260906074547 | 73 | 171 | 0.0 | 0.0 | 0.00 | 0.01 | 0.01 | 92 | 1009.3 |
| 20260906073044 | 73 | 360 | 0.0 | 6.0 | 0.00 | 0.01 | 0.01 | 92 | 1009.2 |
| 20260906071537 | 73 | 213 | 0.0 | 1.0 | 0.00 | 0.01 | 0.01 | 91 | 1009.1 |
| 20260906070030 | 73 | 360 | 0.0 | 0.0 | 0.00 | 0.01 | 0.01 | 91 | 1008.5 |
| 20260906064520 | 73 | 36 | 0.0 | 0.0 | 0.01 | 0.01 | 0.01 | 90 | 1008.8 |
| 20260906063015 | 74 | 360 | 0.0 | 1.0 | 0.01 | 0.01 | 0.01 | 91 | 1009.3 |
| 20260906061608 | 74 | 360 | 0.0 | 1.0 | 0.01 | 0.01 | 0.01 | 91 | 1009.6 |
| 20260906060059 | 74 | 9 | 0.0 | 5.0 | 0.01 | 0.01 | 0.01 | 90 | 1009.4 |
| 20260906054602 | 75 | 360 | 0.0 | 1.0 | 0.00 | 0.00 | 0.00 | 89 | 1008.8 |
| 20260906053057 | 75 | 360 | 0.0 | 7.0 | 0.00 | 0.00 | 0.00 | 88 | 1009.4 |
| 20260906051601 | 75 | 240 | 0.0 | 0.0 | 0.00 | 0.00 | 0.00 | 87 | 1009.4 |
| 20260906050033 | 74 | 235 | 0.0 | 0.0 | 0.00 | 0.00 | 0.00 | 88 | 1009.4 |
| 20260906044525 | 74 | 235 | 0.0 | 0.0 | 0.00 | 0.00 | 0.00 | 89 | 1009.2 |
| 20260906043020 | 74 | 235 | 0.0 | 0.0 | 0.00 | 0.00 | 0.00 | 89 | 1009.4 |
| 20260906041511 | 74 | 235 | 0.0 | 0.0 | 0.00 | 0.00 | 0.00 | 88 | 1009.6 |
| 20260906040003 | 74 | 222 | 0.0 | 0.0 | 0.00 | 0.00 | 0.00 | 87 | 1009.8 |
| 20260906034605 | 74 | 222 | 0.0 | 0.0 | 0.00 | 0.00 | 0.00 | 87 | 1009.7 |
| 20260906033104 | 75 | 223 | 0.0 | 0.0 | 0.00 | 0.00 | 0.00 | 87 | 1009.7 |
| 20260906031550 | 75 | 223 | 0.0 | 0.0 | 0.00 | 0.00 | 0.00 | 87 | 1009.7 |
| 20260906030047 | 75 | 223 | 0.0 | 0.0 | 0.00 | 0.00 | 0.00 | 86 | 1009.6 |
| 20260906024540 | 75 | 223 | 0.0 | 0.0 | 0.00 | 0.00 | 0.00 | 87 | 1009.5 |
| 20260906023033 | 75 | 223 | 0.0 | 0.0 | 0.00 | 0.00 | 0.00 | 86 | 1009.0 |
| 20260906021528 | 76 | 223 | 0.0 | 0.0 | 0.00 | 0.00 | 0.00 | 85 | 1008.9 |
| 20260906020120 | 76 | 245 | 0.0 | 0.0 | 0.00 | 0.00 | 0.00 | 84 | 1008.8 |
| 20260906014514 | 77 | 244 | 0.0 | 0.0 | 0.00 | 0.00 | 0.00 | 84 | 1008.5 |
| 20260906013007 | 77 | 244 | 0.0 | 0.0 | 0.00 | 0.00 | 0.00 | 83 | 1008.3 |
| 20260906011501 | 78 | 360 | 0.0 | 0.0 | 0.00 | 0.00 | 0.00 | 80 | 1008.4 |
| 20260906010055 | 79 | 360 | 0.0 | 0.0 | 0.00 | 0.00 | 0.00 | 78 | 1008.5 |
| 20260906004551 | 79 | 360 | 0.0 | 0.0 | 0.00 | 0.00 | 0.00 | 77 | 1008.7 |
| 20260906003050 | 80 | 360 | 0.0 | 0.0 | 0.00 | 0.00 | 0.00 | 75 | 1008.6 |
| 20260906001546 | 81 | 360 | 0.0 | 0.0 | 0.00 | 0.00 | 0.00 | 72 | 1008.6 |
| 20260906000040 | 82 | 360 | 0.0 | 0.0 | 0.00 | 0.00 | 0.00 | 69 | 1008.7 |